Location: Medlow Airstrip Trail, Medlow Bath NSW 2780, Australia
(33.6682°S, 150.3233°E)
Time: 00:14:19
(UTC+10:00)

Altair - Visible Passes

Search period start: 18 September 2019 00:00
Search period end: 28 September 2019 00:00
Orbit: 1501 x 1683 km, 47.2° (Epoch: 16 September)

Date Brightness Start Highest point End Pass type
(mag) Time Alt. Az. Time Alt. Az. Time Alt. Az.
18 Sep 9.6 04:57:23 10° NNE 05:03:30 20° NE 05:09:34 10° E visible
19 Sep 9.6 04:32:59 10° NNE 04:38:28 17° NE 04:43:54 10° E visible
20 Sep 9.6 04:08:42 10° NNE 04:13:25 15° ENE 04:18:05 10° E visible
21 Sep 9.6 03:44:42 10° NNE 03:48:23 13° ENE 03:52:02 10° E visible
22 Sep 9.7 03:21:18 10° NE 03:23:20 11° ENE 03:25:22 10° ENE visible
22 Sep 8.1 05:17:39 10° NNW 05:26:38 56° NE 05:35:33 10° ESE visible
23 Sep 8.2 04:52:39 10° NNW 05:01:32 51° NE 05:10:19 10° ESE visible
24 Sep 8.3 04:27:41 10° NNW 04:36:27 47° NE 04:45:04 10° ESE visible
25 Sep 8.4 04:02:45 10° NNW 04:11:21 42° NE 04:19:49 10° ESE visible
26 Sep 8.4 03:39:09 15° N 03:46:16 38° NE 03:54:32 10° ESE visible
27 Sep 8.5 03:15:58 20° N 03:21:12 35° NE 03:29:14 10° ESE visible
27 Sep 7.5 05:16:01 10° WNW 05:25:22 75° SW 05:34:36 10° SE visible
